Date String (YYYY-MM-DD hh:mm:ss) UTC,Instrument flags,absolute air pressure of the measurement (hPa),sample flow rate (lpm),inlet stack bypass flow (lpm),air temperature of the measurement (°C),ambient temperature measured by the external sensor (°C),aerosol sample conditioner tube jacket temperature (°C),OPC LED temperature (°C),internal box temperature (°C),relative humidity of the measurement (%),span deviation,mass concentration of particles derived from Lorenz-Mie calculation of OPC scattering (μg/m³),mass concentration of particles derived from Lorenz-Mie calculation of OPC scattering (μg/m³),mass concentration of particles derived from Lorenz-Mie calculation of OPC scattering (μg/m³)
DateTimeUTC,F1_M11,P_M11,Q1_M11,Q2_M11,T1_M11,T2_M11,T3_M11,T4_M11,T5_M11,U1_M11,ZSPAN_M11,X0_M11,X2_M11,X1_M11
2023-06-12 12:00:00,SystemResetWarning,0830.9,4.99,000.00,028.5,026.9,000.0,037.2,029.8,32.1,0001.2,0008.11,0004.99,0004.63
2023-06-12 12:01:00,SystemResetWarning,0830.9,4.99,000.00,028.5,026.9,000.0,037.2,029.8,32.1,0001.5,0007.94,0004.93,0004.61
2023-06-12 12:02:00,SystemResetWarning,0830.9,5.00,000.00,028.5,026.9,000.0,037.2,029.8,32.1,0001.7,0007.93,0004.91,0004.59
2023-06-12 12:03:00,SystemResetWarning,0830.9,4.99,000.00,028.5,026.8,000.0,037.2,029.8,32.1,0001.8,0008.01,0004.92,0004.58
2023-06-12 12:04:00,SystemResetWarning,0830.9,5.00,000.00,028.5,026.8,000.0,037.2,029.8,32.1,0001.9,0008.04,0004.92,0004.57
2023-06-12 12:05:00,SystemResetWarning,0830.9,5.00,000.00,028.4,026.8,000.0,037.1,029.8,32.1,0002.3,0008.02,0004.90,0004.55
2023-06-12 12:06:00,SystemResetWarning,0830.9,5.00,000.00,028.4,026.8,000.0,037.1,029.8,32.1,0002.3,0007.92,0004.90,0004.55
2023-06-12 12:07:00,SystemResetWarning,0830.9,5.00,000.00,028.4,026.8,000.0,037.1,029.7,32.2,0002.2,0007.69,0004.85,0004.53
2023-06-12 12:08:00,SystemResetWarning,0830.9,5.00,000.00,028.4,026.8,000.0,037.1,029.8,32.1,0002.2,0007.67,0004.82,0004.51
2023-06-12 12:09:00,SystemResetWarning,0831.0,5.00,000.00,028.4,026.7,000.0,037.1,029.7,32.2,0002.2,0007.64,0004.79,0004.50
2023-06-12 12:10:00,SystemResetWarning,0830.9,5.00,000.00,028.4,026.8,000.0,037.1,029.7,32.2,0002.3,0007.57,0004.75,0004.48
2023-06-12 12:11:00,SystemResetWarning,0830.9,5.00,000.00,028.4,026.7,000.0,037.1,029.7,32.2,0002.3,0007.68,0004.77,0004.46
2023-06-12 12:12:00,SystemResetWarning,0831.0,5.00,000.00,028.4,026.8,000.0,037.1,029.7,32.2,0002.5,0007.69,0004.77,0004.45
2023-06-12 12:13:00,SystemResetWarning,0830.9,5.01,000.00,028.3,026.7,000.0,037.1,029.7,32.2,0002.7,0007.68,0004.73,0004.42
2023-06-12 12:14:00,SystemResetWarning,0830.9,5.00,000.00,028.3,026.7,000.0,037.1,029.7,32.3,0002.7,0007.60,0004.69,0004.40
2023-06-12 12:15:00,SystemResetWarning,0830.9,5.00,000.00,028.3,026.7,000.0,037.1,029.7,32.3,0002.5,0007.55,0004.66,0004.38
2023-06-12 12:16:00,SystemResetWarning,0830.9,5.00,000.00,028.3,026.7,000.0,037.0,029.7,32.2,0002.3,0007.58,0004.65,0004.36
2023-06-12 12:17:00,SystemResetWarning,0830.9,5.00,000.00,028.3,026.7,000.0,037.0,029.6,32.3,0002.5,0007.91,0004.64,0004.34
2023-06-12 12:18:00,SystemResetWarning,0830.9,4.99,000.00,028.3,026.7,000.0,037.0,029.6,32.3,0002.8,0008.17,0004.66,0004.35
2023-06-12 12:19:00,SystemResetWarning,0830.9,5.00,000.00,028.3,026.7,000.0,037.0,029.7,32.3,0003.1,0008.21,0004.67,0004.35
2023-06-12 12:20:00,SystemResetWarning,0830.9,4.99,000.00,028.3,026.7,000.0,037.0,029.7,32.3,0003.3,0008.13,0004.65,0004.34
2023-06-12 12:21:00,SystemResetWarning,0830.9,5.00,000.00,028.3,026.7,000.0,037.0,029.7,32.3,0003.1,0008.23,0004.69,0004.35
2023-06-12 12:22:00,SystemResetWarning,0830.9,5.00,000.00,028.3,026.7,000.0,037.0,029.7,32.2,0003.0,0008.36,0004.71,0004.35
2023-06-12 12:23:00,SystemResetWarning,0830.8,5.00,000.00,028.3,026.7,000.0,037.0,029.7,32.2,0002.8,0008.40,0004.73,0004.36
2023-06-12 12:24:00,SystemResetWarning,0830.8,5.00,000.00,028.3,026.7,000.0,037.0,029.7,32.2,0002.7,0008.41,0004.76,0004.38
2023-06-12 12:25:00,SystemResetWarning,0830.8,5.00,000.00,028.3,026.7,000.0,037.0,029.7,32.2,0002.6,0008.53,0004.82,0004.40
2023-06-12 12:26:00,SystemResetWarning,0830.7,5.00,000.00,028.3,026.8,000.0,036.9,029.7,32.1,0002.3,0008.74,0004.87,0004.43
2023-06-12 12:27:00,SystemResetWarning,0830.7,5.01,000.00,028.3,026.8,000.0,036.9,029.8,32.0,0002.2,0009.19,0004.94,0004.45
2023-06-12 12:28:00,SystemResetWarning,0830.8,5.00,000.00,028.3,026.8,000.0,036.9,029.8,32.0,0002.4,0009.41,0004.99,0004.47
2023-06-12 12:29:00,SystemResetWarning,0830.8,4.99,000.00,028.3,026.9,000.0,036.9,029.9,32.0,0002.2,0009.73,0005.01,0004.48
2023-06-12 12:30:00,SystemResetWarning,0830.8,4.99,000.00,028.4,026.9,000.0,036.9,029.9,32.0,0001.9,0009.87,0005.03,0004.49
2023-06-12 12:31:00,SystemResetWarning,0830.9,4.99,000.00,028.4,026.9,000.0,036.9,029.9,31.9,0001.5,0010.01,0005.07,0004.50
2023-06-12 12:32:00,SystemResetWarning,0830.9,4.99,000.00,028.4,027.0,000.0,036.9,029.9,32.0,0001.2,0010.10,0005.10,0004.51
2023-06-12 12:33:00,SystemResetWarning,0830.9,5.01,000.00,028.4,027.0,000.0,036.9,029.9,31.9,0001.5,0009.93,0005.05,0004.51
2023-06-12 12:34:00,SystemResetWarning,0830.9,5.01,000.00,028.4,027.0,000.0,036.9,030.0,31.9,0001.7,0009.89,0005.06,0004.51
2023-06-12 12:35:00,SystemResetWarning,0830.9,5.01,000.00,028.5,027.1,000.0,037.0,030.0,31.8,0001.6,0009.96,0005.06,0004.51
2023-06-12 12:36:00,SystemResetWarning,0830.9,5.00,000.00,028.5,027.1,000.0,037.0,030.0,31.8,0001.6,0010.32,0005.04,0004.51
2023-06-12 12:37:00,SystemResetWarning,0830.9,5.00,000.00,028.5,027.1,000.0,037.0,030.0,31.8,0002.0,0010.62,0005.07,0004.52
2023-06-12 12:38:00,SystemResetWarning,0830.9,5.00,000.00,028.5,027.1,000.0,037.0,030.0,31.8,0002.2,0010.75,0005.07,0004.52
2023-06-12 12:39:00,SystemResetWarning,0830.8,5.00,000.00,028.5,027.1,000.0,037.0,030.1,31.8,0002.0,0010.07,0005.05,0004.53
2023-06-12 12:40:00,SystemResetWarning,0830.8,5.00,000.00,028.5,027.1,000.0,037.0,030.1,31.8,0001.7,0010.25,0005.06,0004.56
2023-06-12 12:41:00,SystemResetWarning,0830.9,4.99,000.00,028.5,027.1,000.0,037.0,030.1,31.9,0001.7,0010.29,0005.06,0004.58
2023-06-12 12:42:00,SystemResetWarning,0830.9,5.00,000.00,028.5,027.1,000.0,037.0,030.1,32.0,0001.7,0010.34,0005.15,0004.65
2023-06-12 12:43:00,SystemResetWarning,0830.9,5.00,000.00,028.5,027.1,000.0,037.0,030.1,32.0,0001.8,0010.42,0005.21,0004.70
2023-06-12 12:44:00,SystemResetWarning,0830.9,4.99,000.00,028.6,027.1,000.0,037.0,030.1,32.0,0002.0,0010.51,0005.32,0004.79
2023-06-12 12:45:00,SystemResetWarning,0830.9,5.00,000.00,028.6,027.2,000.0,037.0,030.1,32.0,0001.8,0010.72,0005.42,0004.88
2023-06-12 12:46:00,SystemResetWarning,0830.9,5.00,000.00,028.6,027.2,000.0,037.1,030.2,32.1,0002.0,0010.94,0005.55,0004.99
2023-06-12 12:47:00,SystemResetWarning,0830.9,5.00,000.00,028.6,027.2,000.0,037.1,030.2,32.1,0001.8,0011.21,0005.74,0005.11
2023-06-12 12:48:00,SystemResetWarning,0830.8,5.00,000.00,028.6,027.2,000.0,037.1,030.2,32.1,0001.6,0011.50,0005.88,0005.22
2023-06-12 12:49:00,SystemResetWarning,0830.8,5.01,000.00,028.6,027.2,000.0,037.1,030.2,32.0,0001.3,0011.44,0005.95,0005.30
2023-06-12 12:50:00,SystemResetWarning,0830.9,5.00,000.00,028.6,027.2,000.0,037.1,030.2,32.0,0001.3,0011.82,0006.08,0005.40
2023-06-12 12:51:00,SystemResetWarning,0830.8,5.00,000.00,028.7,027.2,000.0,037.1,030.2,32.0,0001.5,0011.73,0006.18,0005.46
2023-06-12 12:52:00,SystemResetWarning,0830.9,5.01,000.00,028.7,027.2,000.0,037.1,030.2,32.0,0001.6,0011.32,0006.27,0005.53
2023-06-12 12:53:00,SystemResetWarning,0830.8,5.00,000.00,028.7,027.2,000.0,037.1,030.3,32.0,0001.6,0011.42,0006.34,0005.58
2023-06-12 12:54:00,SystemResetWarning,0830.9,5.00,000.00,028.7,027.2,000.0,037.2,030.3,32.0,0001.7,0011.60,0006.43,0005.63
2023-06-12 12:55:00,SystemResetWarning,0830.9,4.99,000.00,028.7,027.2,000.0,037.2,030.3,32.0,0001.6,0011.78,0006.49,0005.65
2023-06-12 12:56:00,SystemResetWarning,0830.9,5.00,000.00,028.7,027.3,000.0,037.2,030.3,32.0,0001.5,0011.83,0006.54,0005.67
2023-06-12 12:57:00,SystemResetWarning,0830.9,5.00,000.00,028.7,027.3,000.0,037.2,030.3,32.1,0001.3,0011.75,0006.52,0005.65
2023-06-12 12:58:00,SystemResetWarning,0830.9,4.99,000.00,028.7,027.3,000.0,037.2,030.3,32.1,0001.3,0011.90,0006.44,0005.61
2023-06-12 12:59:00,SystemResetWarning,0830.9,5.00,000.00,028.7,027.3,000.0,037.2,030.3,32.2,0001.5,0012.07,0006.37,0005.56
